Location: Goll?ig?dem
(16.6773°N, 80.7332°E)
Time: 15:12:45
(UTC+00:00)

Nadezhda 1 Rocket - Pass Details

Date: 19 May 2025
Orbit: 941 x 1003 km, 83.0° (Epoch: 17 June)

Event Time Altitude Azimuth Distance (km) Brightness Sun altitude
Exits shadow 14:32:32 35° 103° (ESE) 1,461 4.4 -20.4°
Maximum altitude 14:33:06 36° 91° (E) 1,442 4.4 -20.5°
Drops below altitude 10° 14:38:35 10° 26° (NNE) 2,664 6.3 -21.7°
Sets 14:41:15 0° 18° (NNE) 3,617 7.1 -22.2°
